COSMOS 2361 1 25590U 98076A 09184.27521192 .00000046 00000-0 33158-4 0 795 2 25590 82.9328 103.1959 0032893 41.3286 319.0349 13.72705305527233 COSMOS 2378 1 26818U 01023A 09184.45420614 .00000054 00000-0 41508-4 0 698 2 26818 82.9268 129.9253 0033609 8.5460 351.6262 13.73735695404560 COSMOS 2389 1 27436U 02026A 09183.76468842 .00000024 00000-0 97150-5 0 7988 2 27436 82.9486 71.1098 0044845 258.0101 101.6015 13.74733698356110 COSMOS 2398 1 27818U 03023A 09184.49082354 .00000012 00000-0 -30924-5 0 6579 2 27818 82.9457 16.8420 0030025 227.6148 132.2477 13.71955198304488 COSMOS 2407 1 28380U 04028A 09184.44054860 .00000036 00000-0 22120-4 0 4757 2 28380 82.9602 338.7999 0037843 286.8653 72.8360 13.75843473248422 COSMOS 2414 1 28521U 05002A 09184.54158145 .00000084 00000-0 58018-4 0 3891 2 28521 82.9475 44.7631 0039910 341.0466 18.9224 13.87347373225366 COSMOS 2429 1 32052U 07038A 09183.90965169 -.00000027 00000-0 -43784-4 0 5724 2 32052 82.9793 88.3858 0037015 243.5485 116.1870 13.74693125 90722